TimeAST,TemperatureF,Dew PointF,Humidity,Sea Level PressureIn,VisibilityMPH,Wind Direction,Wind SpeedMPH,Gust SpeedMPH,PrecipitationIn,Events,Conditions,WindDirDegrees,DateUTC
12:56 AM,77.0,69.1,76,30.03,10.0,East,4.6,-,N/A,,Scattered Clouds,80,2013-03-29 04:56:00
1:56 AM,77.0,69.1,76,30.01,10.0,East,4.6,-,N/A,,Scattered Clouds,90,2013-03-29 05:56:00
2:56 AM,78.1,69.1,74,30.00,10.0,East,3.5,-,N/A,,Scattered Clouds,100,2013-03-29 06:56:00
3:56 AM,77.0,69.1,76,29.99,10.0,ESE,3.5,-,N/A,,Scattered Clouds,120,2013-03-29 07:56:00
4:56 AM,75.9,69.1,79,30.01,10.0,Calm,Calm,-,N/A,,Scattered Clouds,0,2013-03-29 08:56:00
5:56 AM,75.9,69.1,79,30.02,10.0,Calm,Calm,-,N/A,,Scattered Clouds,0,2013-03-29 09:56:00
6:56 AM,75.9,69.1,79,30.03,10.0,Calm,Calm,-,N/A,,Scattered Clouds,0,2013-03-29 10:56:00
7:56 AM,81.0,68.0,65,30.05,10.0,Calm,Calm,-,N/A,,Scattered Clouds,0,2013-03-29 11:56:00
8:56 AM,77.0,71.1,82,30.08,10.0,NNE,10.4,-,N/A,,Scattered Clouds,20,2013-03-29 12:56:00
9:56 AM,77.0,70.0,79,30.09,10.0,North,12.7,-,0.00,,Mostly Cloudy,10,2013-03-29 13:56:00
10:56 AM,78.1,70.0,76,30.09,10.0,North,11.5,-,N/A,,Mostly Cloudy,360,2013-03-29 14:56:00
11:56 AM,75.9,71.1,85,30.09,9.0,North,13.8,20.7,0.00,Rain,Light Rain,10,2013-03-29 15:56:00
12:56 PM,75.0,71.1,87,30.08,9.0,NNE,16.1,23.0,0.02,Rain,Light Rain,30,2013-03-29 16:56:00
1:56 PM,75.9,71.1,85,30.06,10.0,NNE,17.3,24.2,0.11,,Mostly Cloudy,20,2013-03-29 17:56:00
2:56 PM,75.9,69.1,79,30.06,10.0,NE,17.3,25.3,N/A,,Overcast,40,2013-03-29 18:56:00
3:56 PM,77.0,69.1,76,30.04,10.0,NNE,16.1,25.3,N/A,,Overcast,30,2013-03-29 19:56:00
4:56 PM,75.0,68.0,79,30.05,10.0,NNE,17.3,26.5,N/A,,Overcast,20,2013-03-29 20:56:00
5:56 PM,75.9,66.9,74,30.06,10.0,NNE,19.6,26.5,N/A,,Overcast,30,2013-03-29 21:56:00
6:56 PM,75.0,66.9,76,30.08,10.0,NNE,15.0,24.2,N/A,,Overcast,30,2013-03-29 22:56:00
7:56 PM,75.0,66.9,76,30.10,10.0,NE,19.6,26.5,N/A,,Mostly Cloudy,40,2013-03-29 23:56:00
8:56 PM,75.0,66.0,73,30.12,10.0,NE,16.1,23.0,N/A,,Mostly Cloudy,40,2013-03-30 00:56:00
9:56 PM,75.0,66.9,76,30.13,10.0,NNE,15.0,26.5,N/A,,Mostly Cloudy,30,2013-03-30 01:56:00
10:56 PM,75.0,64.9,71,30.14,10.0,NE,13.8,-,N/A,,Mostly Cloudy,40,2013-03-30 02:56:00
11:56 PM,75.9,64.9,69,30.13,10.0,NE,9.2,-,N/A,,Mostly Cloudy,50,2013-03-30 03:56:00